Location: Caltech
(34.1382°N, 118.1253°W)
Time: 14:38:28
(UTC-07:00)

Tiros 1 despin weight - Visible Passes

Search period start: 31 July 2014 00:00
Search period end: 10 August 2014 00:00
Orbit: 602 x 653 km, 48.2° (Epoch: 30 July)

Date Brightness Start Highest point End Pass type
(mag) Time Alt. Az. Time Alt. Az. Time Alt. Az.
31 Jul ? 20:33:49 10° NNW 20:36:12 14° N 20:38:34 10° NE visible
31 Jul ? 22:15:11 10° NW 22:19:07 29° NNE 22:19:35 28° NE visible
31 Jul ? 23:56:41 10° WNW 23:56:49 11° WNW 23:56:49 11° WNW visible
01 Aug ? 20:53:19 10° NNW 20:56:19 17° NNE 20:59:17 10° NE visible
01 Aug ? 22:34:28 10° NW 22:37:57 43° N 22:37:57 43° N visible
02 Aug ? 21:12:36 10° NNW 21:16:19 24° NNE 21:19:07 14° ENE visible
02 Aug ? 22:53:57 10° NW 22:56:21 31° WNW 22:56:21 31° WNW visible
03 Aug ? 21:31:52 10° NW 21:36:08 40° NNE 21:37:34 31° ENE visible
03 Aug ? 23:13:47 10° WNW 23:14:48 16° WNW 23:14:48 16° WNW visible
04 Aug ? 21:51:15 10° NW 21:55:46 79° NE 21:56:04 74° E visible
05 Aug ? 20:29:16 10° NW 20:33:22 32° NNE 20:37:23 10° E visible
05 Aug ? 22:10:54 10° WNW 22:14:37 44° WSW 22:14:37 44° WSW visible
06 Aug ? 20:48:35 10° NW 20:53:04 59° NE 20:56:00 20° ESE visible
06 Aug ? 22:31:09 10° W 22:33:15 18° WSW 22:33:15 18° WSW visible
07 Aug ? 21:08:05 10° WNW 21:12:35 66° SW 21:14:42 30° SSE visible
08 Aug ? 21:28:02 10° WNW 21:31:56 29° SW 21:33:28 23° SSW visible
09 Aug ? 20:05:21 10° NW 20:09:55 90° SW 20:14:25 10° SE visible
09 Aug ? 21:49:14 10° WSW 21:51:06 12° SW 21:52:19 11° SW visible
